Temperature
17 18 18 18 18 18 19 21 22 21 20 19 18 18 18 16 16 14 12 12 12 13 13 13 13 13 13 13 14 14 14 14 14 14 14 14 14 14 15 15 15 15 15 15 15 15 15 15 15
17 17 17 18 18 18 19 20 20 19 18 18 17 18 17 15 13 12 11 12 12 12 13 13 13 13 13 13 13 13 13 14 14 14 14 14 14 14 14 14 14 14 14 15 15 15 15 15 15
17 17 17 18 18 18 20 20 18 17 17 18 17 16 16 14 12 11 11 11 12 12 13 13 13 13 13 13 13 13 13 13 14 14 14 14 14 14 14 14 14 14 14 14 14 15 14 14 14
16 17 18 17 18 19 19 19 18 17 17 17 17 15 13 12 11 11 11 11 11 12 12 12 12 12 13 13 13 13 13 13 13 13 13 13 14 14 14 14 14 14 14 14 14 14 14 14 14
16 17 17 17 17 18 18 18 18 17 17 17 16 15 12 11 11 11 11 11 11 12 12 12 12 12 12 12 12 12 13 13 13 13 13 13 13 13 13 13 14 14 14 14 14 14 14 14 14
16 18 17 17 18 18 18 17 17 17 17 16 16 15 11 11 11 11 11 11 11 11 11 12 12 12 12 12 12 12 12 13 13 13 13 13 13 13 13 13 13 13 13 13 14 14 14 14 14
16 16 17 18 17 17 17 16 17 16 16 15 15 14 11 10 10 11 10 10 11 11 11 11 11 11 11 11 12 12 12 12 12 12 13 13 13 13 13 13 13 13 13 13 13 13 13 13 13
15 16 17 17 17 17 16 15 15 15 14 13 14 13 11 9 10 10 10 10 10 10 11 11 11 11 11 11 11 11 11 12 12 12 12 12 12 12 12 12 13 13 13 13 13 13 13 13 13
15 15 15 17 17 16 14 14 13 13 13 12 12 11 10 10 9 9 9 10 10 10 10 10 10 11 11 11 11 11 11 11 11 12 12 12 12 12 12 12 12 12 12 12 12 12 12 12 12
14 13 15 15 15 14 14 13 13 12 12 11 11 10 10 9 9 9 9 9 9 10 10 10 10 10 10 10 10 10 10 10 11 11 11 11 11 11 11 11 12 12 12 12 12 12 12 12 12
14 13 14 14 13 13 13 13 12 12 12 12 11 9 9 8 8 8 8 8 9 9 9 9 9 10 10 10 10 10 10 10 10 10 10 10 11 11 11 11 11 11 11 11 11 11 11 11 11
13 13 13 12 11 12 12 12 11 11 11 11 10 9 9 8 8 8 7 8 8 8 9 9 9 9 9 9 9 9 9 9 9 9 10 10 10 10 10 10 10 10 10 10 11 11 11 11 11
12 12 11 11 10 10 10 10 10 10 10 10 9 9 8 8 7 7 7 7 7 8 8 8 8 8 9 9 9 9 9 9 9 9 9 9 10 10 10 10 10 10 10 10 10 10 10 10 10
11 11 10 10 10 10 10 10 10 9 9 9 8 8 7 7 7 7 7 7 7 7 7 8 8 8 8 8 8 8 8 8 9 9 9 9 9 9 9 9 9 9 9 10 10 9 9 9 10
10 10 10 10 10 10 9 8 9 9 9 8 8 7 7 6 6 6 6 6 7 7 7 7 7 7 7 8 8 8 8 8 8 8 8 8 8 9 9 9 9 9 9 9 9 9 9 9 9
10 10 9 10 10 10 9 8 10 9 9 8 8 7 6 6 6 6 6 6 6 6 6 6 7 7 7 7 7 7 7 7 7 7 8 8 8 8 8 8 8 8 8 8 9 9 9 9 9
10 10 10 10 10 9 8 8 9 9 9 8 8 7 6 6 5 5 5 6 6 6 6 6 6 6 6 6 6 6 7 7 7 7 7 7 7 7 8 8 8 8 8 8 8 8 8 8 8
9 10 11 10 9 9 8 8 8 9 9 8 7 7 6 5 5 5 5 5 5 5 5 5 5 5 6 6 6 6 6 6 6 6 7 7 7 7 7 7 7 7 7 7 7 8 7 8 8
9 9 9 9 9 8 7 8 8 8 8 7 7 6 5 5 4 4 4 4 4 4 4 5 5 5 5 5 5 5 5 6 6 6 6 6 6 6 7 7 7 7 7 7 7 7 7 7 7
8 8 9 8 8 8 7 7 8 7 7 7 6 5 5 4 4 3 3 3 4 4 4 4 4 4 4 5 5 5 5 5 5 5 5 6 6 6 6 6 6 6 6 6 6 6 6 6 6
8 7 7 7 6 7 6 6 7 7 7 6 6 5 4 3 3 3 2 3 3 3 3 3 3 3 3 4 4 4 4 4 4 5 5 5 5 5 5 6 6 6 6 6 6 6 6 6 6
6 7 7 6 5 5 6 4 6 6 6 5 5 5 4 3 2 2 2 2 2 2 2 3 3 3 3 3 3 3 3 3 3 4 4 4 4 5 5 5 5 5 5 5 5 5 5 5 5
5 6 6 5 5 4 5 4 5 6 5 4 4 4 3 3 2 1 1 1 1 2 2 2 2 2 2 2 2 3 3 3 3 3 3 4 4 4 4 4 4 4 5 5 5 5 5 5 5
5 5 4 4 4 3 5 4 5 5 4 4 4 3 3 2 2 1 1 1 1 1 1 1 1 2 2 2 2 2 2 2 2 2 2 3 3 3 3 3 4 4 4 4 4 4 4 4 4
4 3 3 3 3 4 5 5 4 4 4 3 3 3 2 2 1 1 0 0 -0 0 0 1 1 1 1 1 1 1 1 1 2 2 2 2 2 3 3 3 3 3 3 4 4 4 4 4 4
3 4 3 4 4 4 4 4 3 3 2 3 2 2 2 1 1 0 -0 -0 -0 -0 -0 -0 0 0 0 1 1 1 1 1 1 1 1 1 2 2 2 2 3 3 3 3 3 3 3 3 4
3 3 3 3 3 2 3 3 3 2 2 1 1 1 1 0 0 -0 -0 -1 -1 -1 -1 -1 -1 -0 0 0 0 0 0 0 1 1 1 1 1 1 1 2 2 2 3 3 3 3 3 3 3
2 2 2 2 2 3 4 4 3 1 1 0 0 0 -0 -0 -1 -1 -1 -1 -1 -1 -1 -1 -1 -1 -1 -0 -0 -0 -0 -0 0 0 1 1 1 1 1 1 1 2 2 2 2 2 2 3 3
1 1 1 2 2 2 2 3 2 1 1 -0 -0 -0 -1 -1 -1 -2 -2 -2 -2 -2 -2 -2 -2 -1 -1 -1 -1 -1 -0 -0 -0 -0 -0 0 0 0 0 1 1 1 1 2 2 2 2 2 2
0 1 1 1 1 1 1 1 1 0 0 -0 -1 -1 -1 -2 -2 -2 -2 -2 -2 -2 -2 -2 -2 -2 -2 -2 -1 -1 -1 -1 -1 -1 -1 -0 -0 -0 -0 0 0 0 1 1 1 1 1 1 1
Wind_Speed
15 12 6 2 2 4 5 3 0 4 5 6 7 6 6 7 6 7 4 6 6 5 7 8 9 10 10 10 11 11 11 11 10 10 10 9 8 8 9 10 10 10 10 11 11 11 11 12 12
12 7 3 3 3 4 4 4 3 5 6 5 5 4 5 7 7 7 4 5 6 6 7 7 9 10 10 10 10 10 10 10 10 10 10 9 9 8 8 9 9 10 10 10 11 11 11 11 11
8 5 3 3 3 3 1 3 9 8 6 3 4 5 5 5 6 4 4 5 6 7 8 8 9 10 10 10 10 9 9 10 10 10 10 9 8 8 8 8 9 9 10 10 10 11 10 10 9
4 3 3 3 5 3 1 6 8 7 4 3 3 6 5 6 4 5 5 5 6 7 9 9 9 9 10 10 10 10 9 9 9 10 9 9 8 8 9 9 9 9 9 9 9 10 10 10 9
3 3 4 4 5 2 2 5 4 4 4 4 2 4 5 6 8 7 6 6 6 6 8 9 9 9 9 9 10 10 9 8 9 9 9 9 9 9 9 9 9 9 8 8 8 9 9 8 8
3 3 3 6 6 4 2 3 3 4 4 4 2 3 5 6 7 6 6 6 6 6 7 8 9 9 9 9 9 9 9 8 8 8 9 9 9 9 9 9 9 9 8 8 8 7 8 7 7
2 2 4 5 3 3 3 2 2 2 3 3 2 2 6 6 6 5 5 5 6 7 7 7 7 8 9 9 8 8 8 8 7 7 8 8 9 9 8 8 8 8 8 7 7 7 7 6 6
4 2 4 4 4 2 4 2 4 3 3 4 3 2 5 5 5 5 5 5 5 6 6 6 7 7 7 7 7 7 7 7 7 6 7 7 8 7 8 7 7 7 7 7 6 6 6 5 5
4 2 3 2 2 3 5 2 3 3 3 3 3 4 6 8 6 4 4 4 4 4 4 5 5 5 5 5 5 5 5 6 6 6 6 6 5 5 6 6 6 6 7 6 6 5 5 4 3
1 2 1 3 4 3 3 2 3 2 2 2 3 5 7 6 4 3 3 3 3 3 3 4 4 4 5 4 4 3 3 4 5 5 4 4 5 5 5 5 5 5 6 6 5 4 3 3 1
1 2 1 3 6 4 2 2 2 3 3 3 4 5 5 4 3 2 2 2 2 2 3 3 4 5 5 5 4 4 4 4 4 5 5 4 4 5 5 5 4 4 4 4 3 3 2 2 2
1 1 1 2 4 2 1 0 1 3 1 3 4 4 4 3 3 2 1 1 2 2 3 3 4 4 4 4 4 4 4 4 4 5 6 5 4 4 4 3 3 2 2 3 2 2 2 3 3
3 1 1 2 1 1 1 3 3 3 2 1 4 4 3 3 2 1 1 2 2 3 3 3 3 3 3 4 4 4 4 4 4 5 5 5 5 4 3 3 3 3 2 2 2 2 2 2 2
1 1 1 2 3 2 3 4 4 5 4 4 4 5 4 3 2 1 1 1 1 2 2 3 3 3 3 3 3 3 4 4 4 4 5 5 5 4 3 3 3 3 3 2 2 2 2 2 2
1 1 3 5 5 3 2 5 7 6 5 5 5 4 4 3 2 2 2 1 1 1 2 2 3 4 3 2 2 3 4 3 4 4 4 4 4 4 4 3 3 3 3 2 1 2 2 2 1
4 4 4 5 5 4 3 6 3 6 6 5 4 4 4 3 3 2 2 1 2 2 1 2 3 4 3 2 2 2 3 3 3 3 3 4 4 4 4 3 2 3 3 2 2 1 1 1 1
5 5 5 3 5 3 5 6 3 5 6 5 4 4 4 3 3 2 2 3 2 2 1 1 2 2 3 3 2 2 2 2 3 2 3 3 3 3 3 2 3 3 3 2 1 1 1 1 1
3 5 4 4 5 4 7 8 5 4 4 4 4 3 3 3 2 2 2 3 3 2 2 2 2 2 2 2 2 1 1 2 2 2 3 3 3 3 2 2 2 2 2 1 0 0 0 0 0
4 5 6 3 1 3 8 9 7 5 4 4 4 3 3 2 1 2 3 3 3 2 2 2 2 2 2 1 1 1 1 1 1 2 3 3 3 3 2 1 2 2 1 1 1 0 0 0 0
6 7 6 2 0 3 7 10 8 6 7 4 4 3 3 2 1 2 2 2 2 1 1 1 1 1 1 1 1 1 1 1 0 2 3 3 3 3 2 2 1 1 1 1 1 0 0 1 0
6 5 5 3 4 5 6 7 6 4 5 4 3 3 3 3 2 1 1 1 1 1 0 1 1 1 2 2 1 2 1 1 1 0 1 2 3 3 2 2 1 1 1 1 1 1 1 1 1
4 2 3 2 3 4 3 5 5 5 5 5 3 3 3 2 2 1 1 0 0 0 0 0 1 1 1 2 1 1 1 2 2 1 1 2 2 3 2 2 1 1 1 2 2 2 1 2 2
1 3 3 4 5 5 5 5 6 5 5 5 4 3 2 2 2 1 1 0 0 0 0 0 1 1 1 1 2 2 2 2 2 1 2 2 2 2 2 2 2 1 1 2 2 2 2 2 2
1 2 3 3 2 6 8 7 5 3 5 4 3 3 2 1 1 1 1 0 0 0 0 1 1 1 2 2 2 2 3 3 2 2 2 2 2 2 2 2 2 2 2 2 2 3 3 3 3
1 0 1 1 4 6 3 5 4 2 3 3 2 2 2 1 1 1 1 1 0 0 1 1 1 2 2 2 3 3 3 4 4 3 3 3 2 2 3 2 2 2 2 3 3 3 3 4 4
3 3 3 4 4 3 2 5 3 2 4 4 3 2 1 1 0 0 0 1 1 1 1 2 2 3 3 3 4 4 3 3 4 4 3 3 3 3 3 3 3 3 3 4 3 3 4 4 4
2 3 1 1 3 4 5 3 2 2 3 3 3 2 1 1 2 1 1 0 1 1 2 2 3 3 3 4 4 4 4 4 4 4 3 3 3 4 4 4 4 4 3 3 4 4 4 4 4
2 0 2 3 3 5 6 4 3 3 1 1 1 1 2 2 3 3 3 2 2 2 2 2 3 4 4 4 4 5 4 4 4 4 4 4 4 4 4 4 4 4 4 4 4 4 4 4 5
3 2 3 3 3 3 4 3 1 3 2 1 0 1 1 2 2 3 3 2 2 2 2 2 3 3 4 4 5 5 4 4 4 4 5 4 4 4 5 5 5 5 4 4 4 5 5 5 5
1 2 4 4 5 4 3 4 2 1 2 2 1 1 2 2 2 3 3 3 3 3 3 3 3 4 4 5 5 5 5 4 5 5 5 5 5 5 5 5 5 5 5 5 5 6 6 6 6
Wind_Direction
309 286 264 263 253 234 233 233 140 84 64 46 37 37 49 42 40 103 112 64 61 65 61 55 45 48 52 55 58 56 54 53 52 50 49 55 63 70 71 69 67 67 67 66 66 67 68 68 67
300 292 266 236 240 237 225 206 128 76 86 81 54 41 66 75 69 95 87 56 63 70 67 60 53 52 54 56 58 59 56 53 51 49 48 54 60 66 72 72 69 67 67 68 69 69 70 70 69
283 268 259 229 231 248 250 79 92 83 84 91 86 39 41 72 81 85 78 67 66 67 68 65 61 57 57 57 57 59 58 55 53 49 48 51 59 62 67 70 70 69 68 68 70 71 70 70 70
279 240 249 250 238 257 0 84 100 108 103 84 102 98 80 52 67 85 83 71 73 69 66 61 62 59 58 60 57 58 60 57 54 51 50 50 55 63 64 63 68 72 72 70 70 73 71 68 67
250 248 222 225 235 244 50 85 110 125 135 120 110 108 98 78 81 88 84 72 75 70 67 64 58 57 56 57 58 55 57 56 53 51 52 50 51 59 64 66 65 66 71 72 71 73 73 69 65
254 244 230 220 219 195 126 89 128 125 114 103 82 93 103 93 77 78 79 74 73 76 72 70 59 54 54 53 58 55 52 55 52 51 54 52 52 55 60 66 67 65 65 71 73 74 73 70 65
278 246 245 243 224 182 126 95 127 114 108 83 36 95 120 98 82 77 79 79 71 74 73 67 59 55 51 49 51 56 51 51 53 51 56 56 55 54 55 62 65 65 63 65 70 71 73 70 65
309 290 248 241 233 165 108 86 41 35 63 46 20 96 112 106 91 81 76 78 73 70 71 64 55 49 47 43 43 52 50 49 50 51 53 56 57 57 56 57 64 65 64 60 64 67 72 72 71
299 264 241 266 278 110 110 105 72 37 63 60 45 52 93 107 99 88 75 66 63 64 66 65 58 46 38 41 40 48 50 48 48 44 54 59 53 56 57 52 62 68 65 60 60 66 65 66 71
282 230 272 5 16 87 123 108 114 151 153 148 113 97 106 108 112 109 92 73 57 47 54 52 46 44 33 32 37 33 47 47 44 33 45 46 47 49 55 60 67 69 68 61 55 52 57 48 44
244 230 56 27 32 50 98 115 159 204 220 195 162 145 131 128 124 122 99 82 68 48 38 44 33 38 35 25 30 24 34 38 36 28 29 43 50 48 52 57 58 62 64 53 47 40 11 10 12
264 306 23 44 39 30 69 63 275 244 258 58 95 121 140 147 151 154 127 80 63 53 33 29 26 32 29 26 25 26 28 34 30 25 23 29 33 34 35 44 37 41 44 39 29 357 347 9 358
225 215 65 65 35 320 302 252 263 245 204 108 125 137 160 168 147 108 90 66 53 44 30 17 26 24 21 25 18 25 27 33 34 30 18 27 29 17 19 29 30 19 33 37 6 360 2 8 357
64 125 195 194 212 231 235 250 237 235 189 172 162 168 172 172 169 160 136 111 66 52 30 14 13 20 24 22 14 20 23 31 36 35 18 23 27 16 14 17 15 14 21 24 357 11 9 358 0
121 214 229 209 197 187 197 255 216 202 176 175 172 174 169 168 174 187 178 166 105 69 42 13 12 15 18 17 8 23 20 31 34 30 20 20 24 20 15 14 10 11 12 7 6 29 28 9 5
211 214 225 189 184 169 199 254 180 160 173 186 185 180 177 181 189 188 169 148 111 94 65 18 8 10 7 3 3 19 18 29 31 23 28 25 22 19 19 13 3 14 16 2 11 59 52 15 356
205 233 230 181 182 180 224 251 197 175 188 203 197 187 183 180 190 186 160 140 124 106 84 43 22 8 1 3 354 19 14 26 26 19 32 27 19 18 21 8 0 15 11 360 13 34 43 30 5
224 246 249 220 187 216 240 253 239 220 221 220 205 198 193 187 199 162 116 114 109 103 90 61 33 8 5 358 351 359 360 3 12 18 28 21 17 7 12 8 2 9 7 354 27 60 359 42 43
285 269 268 274 211 244 250 260 251 233 229 217 197 189 188 183 160 108 94 94 92 80 77 56 22 1 11 356 318 301 283 270 305 16 20 15 5 354 353 352 2 357 320 312 316 95 53 354 79
267 274 273 301 348 287 272 270 259 218 211 193 179 174 171 161 138 106 83 81 81 71 53 46 20 3 354 335 306 266 280 260 257 15 12 2 351 347 337 344 323 330 319 315 304 115 249 283 111
263 257 277 291 315 269 278 279 219 198 182 173 166 164 165 172 178 157 104 85 69 42 18 326 343 333 328 331 341 338 327 304 280 304 289 327 330 331 346 333 309 284 270 245 272 217 211 227 246
260 315 302 309 297 267 219 277 240 185 175 175 166 161 160 148 138 144 129 85 71 285 325 322 305 322 327 335 334 305 272 276 273 252 254 299 327 328 332 321 310 274 254 243 255 247 217 208 232
283 332 292 265 260 280 234 239 258 174 191 193 171 155 141 129 141 165 175 200 315 0 352 317 299 294 308 311 289 280 272 268 267 270 268 267 294 311 319 319 315 283 274 255 253 259 232 216 229
330 315 288 256 244 258 221 211 256 202 186 169 161 143 130 116 124 120 106 128 103 26 340 315 299 286 282 279 283 268 274 268 256 260 262 260 257 284 294 308 311 291 276 265 259 259 238 228 238
253 85 337 263 227 245 197 212 241 152 122 129 145 159 149 155 158 165 168 164 181 314 314 303 283 284 277 272 272 265 271 261 240 239 240 254 260 275 269 293 289 285 278 275 271 259 249 235 233
217 214 200 236 256 291 281 233 219 122 92 80 81 81 104 83 50 323 200 177 206 258 280 283 279 278 276 270 269 266 262 263 245 238 237 238 244 250 268 276 279 282 280 275 266 258 256 248 237
203 221 310 290 284 271 242 224 216 133 85 76 73 73 42 12 359 339 335 271 248 251 261 262 266 274 276 274 271 267 263 266 257 244 243 240 244 258 260 269 271 274 273 269 264 251 251 248 242
306 298 161 200 243 262 262 229 219 194 211 81 56 33 0 357 346 337 327 302 270 257 263 262 261 269 273 273 267 273 263 261 262 246 242 244 246 256 252 252 260 265 266 265 260 256 255 252 245
200 214 215 230 243 238 270 262 317 187 163 157 272 356 345 334 324 323 314 312 298 294 285 278 270 276 276 273 265 267 261 257 263 252 242 247 248 249 247 249 253 256 257 257 256 258 259 256 253
238 215 183 198 243 234 260 267 277 64 98 107 54 343 336 329 323 313 309 315 314 305 297 287 279 273 273 272 266 263 260 253 256 256 247 250 250 252 252 251 250 253 256 252 249 255 258 252 253
Height
1495 1496 1498 1501 1504 1506 1504 1496 1491 1495 1499 1504 1505 1505 1508 1514 1518 1529 1529 1527 1526 1526 1527 1528 1529 1529 1530 1530 1530 1531 1531 1532 1532 1532 1533 1534 1534 1535 1536 1536 1537 1537 1538 1538 1538 1539 1539 1540 1540
1495 1497 1500 1501 1505 1509 1503 1494 1495 1498 1503 1505 1507 1509 1511 1517 1521 1524 1525 1526 1525 1526 1527 1527 1528 1529 1530 1530 1530 1531 1532 1532 1532 1533 1533 1534 1535 1535 1536 1537 1537 1538 1538 1538 1539 1539 1540 1541 1541
1496 1497 1500 1499 1502 1505 1500 1494 1497 1501 1504 1506 1509 1512 1515 1520 1522 1523 1524 1525 1525 1526 1526 1527 1528 1529 1529 1530 1530 1531 1532 1532 1533 1533 1534 1534 1535 1536 1536 1537 1537 1538 1538 1539 1539 1540 1541 1541 1542
1497 1499 1500 1501 1502 1498 1496 1497 1499 1502 1506 1508 1510 1514 1518 1522 1522 1522 1523 1524 1525 1525 1526 1527 1528 1529 1529 1530 1530 1531 1532 1532 1533 1533 1534 1534 1535 1536 1536 1537 1537 1538 1538 1539 1540 1540 1541 1542 1543
1497 1498 1500 1502 1501 1497 1496 1498 1500 1503 1506 1509 1511 1514 1519 1522 1521 1522 1523 1524 1525 1525 1526 1527 1528 1528 1529 1529 1530 1531 1531 1532 1533 1533 1534 1534 1535 1535 1536 1537 1537 1538 1538 1539 1540 1540 1541 1542 1543
1498 1496 1501 1503 1499 1496 1498 1500 1502 1504 1506 1509 1512 1514 1520 1522 1521 1522 1523 1523 1524 1525 1526 1526 1527 1528 1529 1529 1530 1530 1531 1532 1532 1533 1534 1534 1535 1535 1536 1536 1537 1538 1538 1539 1540 1540 1541 1542 1543
1498 1496 1498 1495 1496 1497 1499 1501 1503 1504 1507 1510 1512 1515 1519 1520 1521 1521 1522 1523 1524 1525 1525 1526 1527 1527 1528 1529 1529 1530 1530 1531 1532 1532 1533 1534 1534 1535 1535 1536 1537 1537 1538 1539 1539 1540 1541 1542 1543
1496 1496 1495 1494 1495 1497 1501 1502 1505 1506 1509 1511 1513 1515 1517 1519 1520 1520 1522 1523 1524 1524 1525 1525 1526 1527 1527 1528 1529 1529 1530 1530 1531 1531 1532 1533 1533 1534 1535 1535 1536 1537 1537 1538 1539 1539 1540 1541 1542
1496 1499 1498 1494 1495 1498 1501 1503 1506 1508 1509 1511 1513 1514 1516 1517 1518 1520 1521 1522 1523 1524 1524 1524 1525 1526 1526 1527 1528 1528 1529 1529 1530 1530 1531 1532 1532 1533 1534 1534 1535 1536 1536 1537 1538 1539 1539 1540 1542
1497 1500 1498 1497 1496 1498 1501 1504 1506 1508 1510 1512 1513 1514 1515 1516 1517 1518 1519 1520 1521 1522 1523 1523 1524 1525 1525 1526 1526 1527 1527 1528 1528 1529 1530 1530 1531 1532 1532 1533 1534 1535 1535 1536 1537 1538 1538 1539 1540
1497 1498 1498 1499 1499 1500 1502 1505 1507 1508 1509 1510 1512 1513 1514 1515 1517 1517 1518 1519 1520 1521 1522 1523 1523 1524 1524 1524 1525 1525 1526 1526 1527 1528 1528 1529 1529 1530 1531 1531 1532 1533 1534 1534 1535 1536 1537 1538 1539
1498 1498 1499 1500 1501 1502 1503 1505 1506 1507 1508 1509 1510 1511 1512 1514 1515 1517 1517 1518 1519 1520 1520 1521 1522 1522 1523 1523 1523 1524 1524 1525 1525 1526 1527 1527 1528 1528 1529 1530 1530 1531 1532 1533 1533 1534 1535 1537 1538
1498 1499 1500 1501 1502 1503 1504 1505 1506 1506 1507 1508 1509 1510 1511 1512 1514 1515 1516 1517 1517 1518 1518 1519 1520 1521 1521 1521 1522 1522 1523 1523 1524 1524 1525 1525 1526 1526 1527 1528 1529 1529 1530 1531 1532 1532 1533 1534 1536
1497 1499 1500 1502 1502 1503 1504 1504 1505 1503 1504 1506 1507 1509 1510 1511 1512 1513 1514 1515 1515 1516 1516 1517 1518 1519 1519 1520 1520 1521 1521 1522 1522 1522 1523 1524 1524 1525 1525 1526 1527 1527 1528 1529 1530 1530 1531 1532 1534
1498 1500 1500 1500 1501 1502 1504 1503 1501 1500 1502 1504 1506 1507 1508 1509 1510 1511 1512 1513 1513 1514 1514 1515 1516 1517 1517 1518 1518 1519 1519 1520 1520 1521 1521 1522 1522 1523 1524 1524 1525 1525 1526 1527 1528 1528 1529 1530 1531
1498 1499 1500 1497 1498 1500 1505 1502 1497 1498 1500 1502 1504 1505 1506 1507 1508 1509 1510 1510 1511 1512 1512 1513 1514 1514 1515 1516 1516 1516 1517 1518 1518 1518 1519 1519 1520 1521 1522 1522 1523 1523 1524 1525 1525 1526 1527 1528 1528
1497 1498 1495 1496 1496 1498 1501 1499 1496 1497 1498 1500 1501 1502 1504 1505 1506 1507 1507 1508 1508 1509 1510 1511 1511 1512 1512 1513 1514 1514 1515 1515 1516 1516 1516 1517 1518 1518 1519 1520 1521 1521 1522 1522 1523 1524 1524 1524 1525
1497 1495 1491 1494 1495 1497 1498 1495 1494 1495 1496 1497 1498 1500 1501 1502 1503 1504 1505 1505 1505 1506 1507 1508 1509 1509 1510 1510 1511 1512 1512 1513 1514 1514 1514 1515 1515 1516 1516 1517 1518 1519 1519 1520 1520 1521 1522 1522 1523
1493 1493 1493 1492 1493 1495 1495 1492 1491 1491 1493 1494 1495 1496 1498 1500 1502 1502 1502 1503 1503 1504 1504 1505 1506 1506 1507 1507 1508 1508 1509 1510 1510 1511 1511 1512 1513 1513 1514 1514 1515 1516 1516 1517 1518 1518 1519 1519 1520
1493 1494 1493 1493 1492 1494 1493 1490 1487 1487 1488 1490 1492 1494 1496 1498 1499 1500 1500 1500 1501 1502 1502 1502 1503 1504 1504 1505 1505 1506 1506 1507 1508 1508 1509 1509 1510 1510 1510 1511 1511 1512 1513 1514 1514 1515 1516 1516 1518
1493 1495 1494 1496 1496 1494 1495 1491 1484 1484 1485 1488 1490 1492 1494 1495 1496 1497 1498 1498 1499 1499 1500 1500 1500 1501 1501 1502 1502 1503 1503 1504 1504 1505 1505 1506 1506 1507 1507 1507 1508 1509 1510 1510 1511 1512 1513 1514 1515
1496 1494 1495 1497 1502 1500 1496 1500 1483 1482 1485 1487 1489 1490 1492 1493 1494 1495 1495 1496 1496 1497 1497 1498 1498 1498 1499 1499 1499 1499 1500 1499 1500 1501 1501 1502 1503 1504 1504 1504 1505 1506 1506 1507 1508 1509 1510 1511 1512
1497 1496 1496 1498 1499 1501 1495 1500 1486 1480 1484 1485 1487 1488 1490 1491 1492 1493 1493 1493 1494 1494 1494 1495 1495 1495 1496 1496 1496 1496 1497 1497 1497 1498 1498 1499 1500 1500 1501 1501 1501 1502 1503 1504 1504 1505 1507 1508 1509
1497 1498 1498 1498 1500 1505 1491 1494 1484 1482 1481 1482 1484 1486 1488 1490 1491 1491 1491 1491 1491 1491 1492 1492 1492 1492 1493 1493 1493 1493 1494 1494 1494 1494 1495 1495 1496 1496 1497 1497 1498 1499 1499 1500 1501 1501 1503 1504 1505
1499 1503 1505 1504 1504 1494 1482 1485 1484 1479 1478 1480 1482 1484 1486 1488 1488 1488 1488 1488 1488 1488 1488 1488 1489 1489 1489 1489 1490 1490 1490 1490 1490 1491 1491 1491 1492 1492 1493 1494 1494 1495 1496 1496 1497 1498 1499 1500 1501
1499 1500 1504 1504 1496 1488 1488 1486 1483 1479 1479 1480 1482 1483 1485 1486 1486 1486 1486 1485 1485 1485 1485 1485 1485 1485 1486 1486 1486 1486 1487 1487 1487 1487 1487 1488 1488 1489 1490 1490 1491 1491 1492 1492 1493 1494 1495 1496 1497
1498 1499 1499 1503 1499 1501 1488 1483 1482 1479 1480 1481 1482 1482 1483 1484 1484 1483 1483 1483 1482 1482 1482 1482 1482 1482 1482 1482 1482 1482 1482 1482 1482 1483 1483 1484 1485 1485 1486 1486 1487 1487 1488 1488 1489 1490 1490 1492 1492
1499 1498 1503 1503 1502 1495 1480 1478 1480 1481 1481 1481 1482 1482 1482 1482 1482 1481 1481 1480 1480 1479 1479 1479 1478 1478 1478 1478 1477 1477 1477 1478 1478 1478 1479 1479 1480 1481 1481 1482 1482 1483 1483 1484 1484 1485 1486 1487 1488
1501 1501 1499 1499 1497 1497 1491 1485 1478 1478 1478 1480 1481 1481 1481 1481 1480 1479 1479 1478 1477 1477 1476 1475 1475 1474 1474 1473 1473 1473 1472 1473 1473 1473 1473 1474 1475 1476 1476 1477 1477 1478 1479 1479 1480 1480 1481 1482 1483
1497 1496 1499 1503 1499 1495 1494 1490 1478 1477 1477 1478 1479 1480 1479 1479 1479 1478 1477 1476 1475 1473 1472 1471 1470 1470 1469 1468 1468 1467 1467 1467 1468 1468 1468 1469 1470 1471 1471 1472 1472 1473 1473 1474 1475 1475 1476 1476 1477